Content
SEND FEEDBACK

Daily
Averages
Monthly
Summary
United States of America

CLIFTON, COLORADO


Home > North America > United States > Colorado
Elevation: 4572 feet     Latitude: 39 04N     Longitude: 108 35W

WEATHER
 
SELECT A DAY
Number of Records: 179,157;   Date Range: 1/1/95 - 8/12/14
 
SHARE

PRINT THIS DATA

[ ← Previous Day ]
WEATHER ALMANAC - JANUARY 23, 2013
[ Next Day → ]
[ °C ]   °F
Weather ElementAverageHighLow
Temperature13.1 °F24.1 °F (2:53 pm)3 °F (7:53 am)
Dewpoint8.5 °F15.1 °F (2:53 pm)1 °F (7:53 am)
Humidity82.1 %92 % (2:53 am)69 % (2:53 pm)
Barometer30.60 in30.69 in (8:53 am)30.53 in (11:53 pm)
Wind Speed3 mph10.4 mph (3:53 am)
Weather ElementAverage
Visibility9.3 mi
Wind DirectionE (95.2 °)

Weather ElementTotal
Precipitation---
Heating Degree Days51.5 (Base 65)
Averaged from 23 records on January 23, 2013
WEATHER CONDITIONS BREAKOUT
WIND DIRECTION BREAKOUT
WEATHER BY HOUR - JANUARY 23, 2013
[ °C ]   °F
Local TimeTemperatureDewpointHumidityBarometerVisibilityWind DirectionWind SpeedGust SpeedPrecipitationEventsConditions
1:53 AM6.1 °F3.0 °F87 %30.60 in8.0 miEast (90°)4.6 mphClear
2:53 AM7.0 °F5.0 °F92 %30.60 in7.0 miESE (120°)5.8 mphClear
3:53 AM9.0 °F7.0 °F92 %30.59 in7.0 miEast (80°)10.4 mphClear
4:53 AM5.0 °F1.9 °F87 %30.63 in10.0 miCalmClear
5:53 AM6.1 °F3.9 °F91 %30.65 in7.0 miWNW (290°)3.5 mphClear
6:53 AM6.1 °F3.0 °F87 %30.66 in10.0 miEast (90°)4.6 mphClear
7:53 AM3.0 °F1.0 °F91 %30.67 in10.0 miNNE (30°)3.5 mphClear
8:53 AM5.0 °F1.0 °F84 %30.69 in10.0 miCalmClear
9:53 AM16.0 °F9.0 °F74 %30.65 in10.0 miCalmClear
10:53 AM17.1 °F10.0 °F74 %30.66 in9.0 miWNW (290°)3.5 mphClear
11:53 AM18.0 °F10.9 °F74 %30.65 in10.0 miCalmClear
12:53 PM19.9 °F12.9 °F74 %30.61 in9.0 miNNW (330°)5.8 mphClear
1:53 PM21.0 °F14.0 °F74 %30.58 in10.0 miNW (310°)3.5 mphClear
2:53 PM24.1 °F15.1 °F69 %30.55 in10.0 miCalmClear
3:53 PM21.0 °F14.0 °F74 %30.56 in10.0 miNNW (330°)4.6 mphClear
4:53 PM19.9 °F14.0 °F78 %30.57 in10.0 miCalmClear
5:53 PM16.0 °F12.0 °F84 %30.58 in10.0 miCalmClear
6:53 PM16.0 °F10.9 °F81 %30.58 in10.0 miNNE (20°)4.6 mphClear
7:53 PM12.9 °F10.0 °F88 %30.61 in10.0 miCalmClear
8:53 PM14.0 °F9.0 °F80 %30.58 in10.0 miEast (90°)3.5 mphClear
9:53 PM12.9 °F10.0 °F88 %30.55 in9.0 miNE (40°)4.6 mphClear
10:53 PM12.9 °F8.1 °F81 %30.56 in10.0 miEast (80°)5.8 mphClear
11:53 PM12.9 °F9.0 °F84 %30.53 in9.0 miCalmClear
Hourly data recorded from KGJT, located miles away from Clifton, Colorado







STORIES FROM OUR PARTNERS